Time,TemperatureF,DewpointF,PressureIn,WindDirection,WindDirectionDegrees,WindSpeedMPH,WindSpeedGustMPH,Humidity,HourlyPrecipIn,Conditions,Clouds,dailyrainin,SoftwareType,DateUTC
2013-09-14 00:04:00,59.0,46.0,30.03,East,90,0.0,0.0,62,0.00,,,0.00,WUHU216HW,2013-09-14 05:04:00,
2013-09-14 00:29:00,59.0,46.5,30.02,East,90,0.0,0.0,63,0.00,,,0.00,WUHU216HW,2013-09-14 05:29:00,
2013-09-14 00:34:00,59.0,46.5,30.02,East,90,0.0,0.0,63,0.00,,,0.00,WUHU216HW,2013-09-14 05:34:00,
2013-09-14 00:59:00,58.9,45.8,30.02,East,90,0.0,0.0,62,0.00,,,0.00,WUHU216HW,2013-09-14 05:59:00,
2013-09-14 01:04:00,58.9,45.8,30.02,East,90,0.0,0.0,62,0.00,,,0.00,WUHU216HW,2013-09-14 06:04:00,
2013-09-14 01:29:00,58.1,45.6,30.03,East,90,0.0,0.0,63,0.00,,,0.00,WUHU216HW,2013-09-14 06:29:00,
2013-09-14 01:34:00,58.1,45.6,30.03,East,90,0.0,0.0,63,0.00,,,0.00,WUHU216HW,2013-09-14 06:34:00,
2013-09-14 01:59:00,58.0,45.8,30.03,East,90,0.0,0.0,64,0.00,,,0.00,WUHU216HW,2013-09-14 06:59:00,
2013-09-14 02:04:00,58.0,45.8,30.03,East,90,0.0,0.0,64,0.00,,,0.00,WUHU216HW,2013-09-14 07:04:00,
2013-09-14 02:29:00,59.0,46.0,30.03,South,180,0.4,0.4,62,0.00,,,0.00,WUHU216HW,2013-09-14 07:29:00,
2013-09-14 02:35:00,59.0,46.0,30.03,South,180,0.4,0.4,62,0.00,,,0.00,WUHU216HW,2013-09-14 07:35:00,
2013-09-14 02:59:00,59.4,46.0,30.03,South,180,1.1,1.1,61,0.00,,,0.00,WUHU216HW,2013-09-14 07:59:00,
2013-09-14 03:04:00,59.4,46.0,30.03,South,180,1.1,1.1,61,0.00,,,0.00,WUHU216HW,2013-09-14 08:04:00,
2013-09-14 03:30:00,59.2,45.4,30.02,SE,135,0.9,0.9,60,0.00,,,0.00,WUHU216HW,2013-09-14 08:30:00,
2013-09-14 03:35:00,59.2,45.4,30.02,SE,135,0.9,0.9,60,0.00,,,0.00,WUHU216HW,2013-09-14 08:35:00,
2013-09-14 03:59:00,59.0,45.6,30.03,SSE,158,0.4,0.4,61,0.00,,,0.00,WUHU216HW,2013-09-14 08:59:00,
2013-09-14 04:04:00,59.0,45.6,30.03,SSE,158,0.4,0.4,61,0.00,,,0.00,WUHU216HW,2013-09-14 09:04:00,
2013-09-14 04:29:00,58.5,45.6,30.02,South,180,0.0,0.0,62,0.00,,,0.00,WUHU216HW,2013-09-14 09:29:00,
2013-09-14 04:34:00,58.5,45.6,30.02,South,180,0.0,0.0,62,0.00,,,0.00,WUHU216HW,2013-09-14 09:34:00,
2013-09-14 04:59:00,57.6,45.5,30.03,SSW,203,0.2,0.2,64,0.00,,,0.00,WUHU216HW,2013-09-14 09:59:00,
2013-09-14 05:04:00,57.6,45.5,30.03,SSW,203,0.2,0.2,64,0.00,,,0.00,WUHU216HW,2013-09-14 10:04:00,
2013-09-14 05:29:00,56.9,45.6,30.04,SSW,203,0.0,0.0,66,0.00,,,0.00,WUHU216HW,2013-09-14 10:29:00,
2013-09-14 05:34:00,56.9,45.6,30.04,SSW,203,0.0,0.0,66,0.00,,,0.00,WUHU216HW,2013-09-14 10:34:00,
2013-09-14 05:59:00,56.3,45.5,30.04,South,180,0.0,0.0,67,0.00,,,0.00,WUHU216HW,2013-09-14 10:59:00,
2013-09-14 06:05:00,56.3,45.5,30.04,South,180,0.0,0.0,67,0.00,,,0.00,WUHU216HW,2013-09-14 11:05:00,
2013-09-14 06:29:00,56.0,46.0,30.04,South,180,0.0,0.0,69,0.00,,,0.00,WUHU216HW,2013-09-14 11:29:00,
2013-09-14 06:35:00,56.0,46.0,30.04,South,180,0.0,0.0,69,0.00,,,0.00,WUHU216HW,2013-09-14 11:35:00,
2013-09-14 07:00:00,55.8,46.3,30.04,South,180,0.0,0.0,70,0.00,,,0.00,WUHU216HW,2013-09-14 12:00:00,
2013-09-14 07:05:00,55.8,46.3,30.04,South,180,0.0,0.0,70,0.00,,,0.00,WUHU216HW,2013-09-14 12:05:00,
2013-09-14 07:29:00,56.2,46.5,30.05,South,180,0.4,0.4,70,0.00,,,0.00,WUHU216HW,2013-09-14 12:29:00,
2013-09-14 07:34:00,56.2,46.5,30.05,South,180,0.4,0.4,70,0.00,,,0.00,WUHU216HW,2013-09-14 12:34:00,
2013-09-14 07:59:00,57.2,46.7,30.06,South,180,0.7,0.7,68,0.00,,,0.00,WUHU216HW,2013-09-14 12:59:00,
2013-09-14 08:04:00,57.2,46.7,30.06,South,180,0.7,0.7,68,0.00,,,0.00,WUHU216HW,2013-09-14 13:04:00,
2013-09-14 08:29:00,59.8,47.2,30.06,South,180,4.7,4.7,63,0.00,,,0.00,WUHU216HW,2013-09-14 13:29:00,
2013-09-14 08:34:00,59.8,47.2,30.06,South,180,4.7,4.7,63,0.00,,,0.00,WUHU216HW,2013-09-14 13:34:00,
2013-09-14 08:59:00,62.3,47.4,30.06,South,180,5.4,5.4,58,0.00,,,0.00,WUHU216HW,2013-09-14 13:59:00,
2013-09-14 09:04:00,62.3,47.4,30.06,South,180,5.4,5.4,58,0.00,,,0.00,WUHU216HW,2013-09-14 14:04:00,
2013-09-14 09:29:00,65.3,47.3,30.06,South,180,4.7,4.7,52,0.00,,,0.00,WUHU216HW,2013-09-14 14:29:00,
2013-09-14 09:34:00,65.3,47.3,30.06,South,180,4.7,4.7,52,0.00,,,0.00,WUHU216HW,2013-09-14 14:34:00,
2013-09-14 09:59:00,68.2,48.3,30.06,South,180,3.4,3.4,49,0.00,,,0.00,WUHU216HW,2013-09-14 14:59:00,
2013-09-14 10:04:00,68.2,48.3,30.06,South,180,3.4,3.4,49,0.00,,,0.00,WUHU216HW,2013-09-14 15:04:00,
2013-09-14 10:29:00,69.8,49.8,30.06,South,180,3.4,3.4,49,0.00,,,0.00,WUHU216HW,2013-09-14 15:29:00,
2013-09-14 10:34:00,69.8,49.8,30.06,South,180,3.4,3.4,49,0.00,,,0.00,WUHU216HW,2013-09-14 15:34:00,
2013-09-14 10:59:00,71.8,51.6,30.05,South,180,4.7,4.7,49,0.00,,,0.00,WUHU216HW,2013-09-14 15:59:00,
2013-09-14 11:04:00,71.8,51.6,30.05,South,180,4.7,4.7,49,0.00,,,0.00,WUHU216HW,2013-09-14 16:04:00,
2013-09-14 11:29:00,73.4,51.8,30.05,South,180,5.1,5.1,47,0.00,,,0.00,WUHU216HW,2013-09-14 16:29:00,
2013-09-14 11:34:00,73.4,51.8,30.05,South,180,5.1,5.1,47,0.00,,,0.00,WUHU216HW,2013-09-14 16:34:00,
2013-09-14 11:59:00,75.2,52.4,30.04,South,180,4.3,4.3,45,0.00,,,0.00,WUHU216HW,2013-09-14 16:59:00,
2013-09-14 12:04:00,75.2,52.4,30.04,South,180,4.3,4.3,45,0.00,,,0.00,WUHU216HW,2013-09-14 17:04:00,
2013-09-14 12:29:00,75.6,50.9,30.03,SSW,203,4.3,4.3,42,0.00,,,0.00,WUHU216HW,2013-09-14 17:29:00,
2013-09-14 12:34:00,75.6,50.9,30.03,SSW,203,4.3,4.3,42,0.00,,,0.00,WUHU216HW,2013-09-14 17:34:00,
2013-09-14 12:59:00,76.7,51.8,30.02,South,180,1.8,1.8,42,0.00,,,0.00,WUHU216HW,2013-09-14 17:59:00,
2013-09-14 13:04:00,76.7,51.8,30.02,South,180,1.8,1.8,42,0.00,,,0.00,WUHU216HW,2013-09-14 18:04:00,
2013-09-14 13:29:00,77.6,51.4,30.01,South,180,3.4,3.4,40,0.00,,,0.00,WUHU216HW,2013-09-14 18:29:00,
2013-09-14 13:34:00,77.6,51.4,30.01,South,180,3.4,3.4,40,0.00,,,0.00,WUHU216HW,2013-09-14 18:34:00,
2013-09-14 13:59:00,80.6,53.4,29.99,South,180,3.1,3.1,39,0.00,,,0.00,WUHU216HW,2013-09-14 18:59:00,
2013-09-14 14:04:00,80.6,53.4,29.99,South,180,3.1,3.1,39,0.00,,,0.00,WUHU216HW,2013-09-14 19:04:00,
2013-09-14 14:29:00,84.2,52.7,29.98,South,180,4.5,4.5,34,0.00,,,0.00,WUHU216HW,2013-09-14 19:29:00,
2013-09-14 14:34:00,84.2,52.7,29.98,South,180,4.5,4.5,34,0.00,,,0.00,WUHU216HW,2013-09-14 19:34:00,
2013-09-14 14:59:00,83.3,50.3,29.97,South,180,1.8,1.8,32,0.00,,,0.00,WUHU216HW,2013-09-14 19:59:00,
2013-09-14 15:04:00,83.3,50.3,29.97,South,180,1.8,1.8,32,0.00,,,0.00,WUHU216HW,2013-09-14 20:04:00,
2013-09-14 15:29:00,84.2,51.1,29.96,South,180,2.9,2.9,32,0.00,,,0.00,WUHU216HW,2013-09-14 20:29:00,
2013-09-14 15:34:00,84.2,51.1,29.96,South,180,2.9,2.9,32,0.00,,,0.00,WUHU216HW,2013-09-14 20:34:00,
2013-09-14 15:59:00,82.3,49.3,29.95,South,180,2.5,2.5,32,0.00,,,0.00,WUHU216HW,2013-09-14 20:59:00,
2013-09-14 16:04:00,82.3,49.3,29.95,South,180,2.5,2.5,32,0.00,,,0.00,WUHU216HW,2013-09-14 21:04:00,
2013-09-14 16:29:00,81.4,49.3,29.94,South,180,2.9,2.9,33,0.00,,,0.00,WUHU216HW,2013-09-14 21:29:00,
2013-09-14 16:34:00,81.4,49.3,29.94,South,180,2.9,2.9,33,0.00,,,0.00,WUHU216HW,2013-09-14 21:34:00,
2013-09-14 16:59:00,79.4,49.1,29.93,SSE,158,6.9,6.9,35,0.00,,,0.00,WUHU216HW,2013-09-14 21:59:00,
2013-09-14 17:04:00,79.4,49.1,29.93,SSE,158,6.9,6.9,35,0.00,,,0.00,WUHU216HW,2013-09-14 22:04:00,
2013-09-14 17:29:00,78.5,48.4,29.93,South,180,5.4,5.4,35,0.00,,,0.00,WUHU216HW,2013-09-14 22:29:00,
2013-09-14 17:34:00,78.5,48.4,29.93,South,180,5.4,5.4,35,0.00,,,0.00,WUHU216HW,2013-09-14 22:34:00,
2013-09-14 17:59:00,76.3,48.1,29.93,South,180,2.0,2.0,37,0.00,,,0.00,WUHU216HW,2013-09-14 22:59:00,
2013-09-14 18:00:00,76.3,48.1,29.93,South,180,2.0,2.0,37,0.00,,,0.00,WUHU216HW,2013-09-14 23:00:00,
2013-09-14 18:05:00,76.3,48.1,29.93,South,180,2.0,2.0,37,0.00,,,0.00,WUHU216HW,2013-09-14 23:05:00,
2013-09-14 18:29:00,75.2,47.1,29.93,South,180,4.7,4.7,37,0.00,,,0.00,WUHU216HW,2013-09-14 23:29:00,
2013-09-14 18:34:00,75.2,47.1,29.93,South,180,4.7,4.7,37,0.00,,,0.00,WUHU216HW,2013-09-14 23:34:00,
2013-09-14 18:59:00,74.3,47.8,29.92,South,180,3.8,3.8,39,0.00,,,0.00,WUHU216HW,2013-09-14 23:59:00,
2013-09-14 19:04:00,74.3,47.8,29.92,South,180,3.8,3.8,39,0.00,,,0.00,WUHU216HW,2013-09-15 00:04:00,
2013-09-14 19:29:00,73.3,48.2,29.92,South,180,2.7,2.7,41,0.00,,,0.00,WUHU216HW,2013-09-15 00:29:00,
2013-09-14 19:34:00,73.3,48.2,29.92,South,180,2.7,2.7,41,0.00,,,0.00,WUHU216HW,2013-09-15 00:34:00,
2013-09-14 19:59:00,72.2,47.8,29.91,South,180,2.2,2.2,42,0.00,,,0.00,WUHU216HW,2013-09-15 00:59:00,
2013-09-14 20:04:00,72.2,47.8,29.91,South,180,2.2,2.2,42,0.00,,,0.00,WUHU216HW,2013-09-15 01:04:00,
2013-09-14 20:29:00,71.1,48.0,29.91,South,180,1.8,1.8,44,0.00,,,0.00,WUHU216HW,2013-09-15 01:29:00,
2013-09-14 20:34:00,71.1,48.0,29.91,South,180,1.8,1.8,44,0.00,,,0.00,WUHU216HW,2013-09-15 01:34:00,
2013-09-14 20:59:00,70.6,48.1,29.91,South,180,2.7,2.7,45,0.00,,,0.00,WUHU216HW,2013-09-15 01:59:00,
2013-09-14 21:04:00,70.6,48.1,29.91,South,180,2.7,2.7,45,0.00,,,0.00,WUHU216HW,2013-09-15 02:04:00,
2013-09-14 21:29:00,69.8,48.6,29.91,South,180,3.8,3.8,47,0.00,,,0.00,WUHU216HW,2013-09-15 02:29:00,
2013-09-14 21:34:00,69.8,48.6,29.91,South,180,3.8,3.8,47,0.00,,,0.00,WUHU216HW,2013-09-15 02:34:00,
2013-09-14 21:59:00,69.5,48.9,29.91,South,180,2.7,2.7,48,0.00,,,0.00,WUHU216HW,2013-09-15 02:59:00,
2013-09-14 22:04:00,69.5,48.9,29.91,South,180,2.7,2.7,48,0.00,,,0.00,WUHU216HW,2013-09-15 03:04:00,
2013-09-14 22:29:00,69.3,48.7,29.92,South,180,4.7,4.7,48,0.00,,,0.00,WUHU216HW,2013-09-15 03:29:00,
2013-09-14 22:34:00,69.3,48.7,29.92,South,180,4.7,4.7,48,0.00,,,0.00,WUHU216HW,2013-09-15 03:34:00,
2013-09-14 22:59:00,68.9,49.0,29.92,South,180,1.6,1.6,49,0.00,,,0.00,WUHU216HW,2013-09-15 03:59:00,
2013-09-14 23:01:00,68.9,49.0,29.92,South,180,1.6,1.6,49,0.00,,,0.00,WUHU216HW,2013-09-15 04:01:00,
2013-09-14 23:06:00,68.9,49.0,29.92,South,180,1.6,1.6,49,0.00,,,0.00,WUHU216HW,2013-09-15 04:06:00,
2013-09-14 23:29:00,68.4,49.2,29.92,South,180,6.0,6.0,50,0.00,,,0.00,WUHU216HW,2013-09-15 04:29:00,
2013-09-14 23:34:00,68.4,49.2,29.92,South,180,6.0,6.0,50,0.00,,,0.00,WUHU216HW,2013-09-15 04:34:00,
2013-09-14 23:59:00,68.0,49.2,29.91,South,180,3.6,3.6,51,0.00,,,0.00,WUHU216HW,2013-09-15 04:59:00,